Home   Weather   Malakal   Past weeks

Flag for South Sudan Past Weather in Malakal, South Sudan — Yesterday and Last 2 Weeks

100 °F

Passing clouds.

Feels Like: 96 °F
Forecast: 74 / 100 °F
Wind: 7 mph from West

Location: Khartoum Airport

Current Time: Oct 25, 2016 at 6:41:14 PM

Latest Report: Oct 25, 2016 at 6:00 PM

Visibility: N/A

Pressure: 29.68 "Hg

Humidity: 15%

Dew Point: 45 °F

Location of MalakalLocation

Past Weather in Malakal — Graph


Malakal Temperature Yesterday

Maximum temperature yesterday: 102 °F (at 1:30 PM)
Minimum temperature yesterday: 82 °F (at 6:30 AM)
Average temperature yesterday: 93 °F

High & Low Weather Summary for the Past Weeks

High104 °F (Oct 11, 3:00 PM)58% (Oct 11, 6:30 AM)29.95 "Hg (Oct 11, 6:30 AM)
Low81 °F (Oct 11, 6:30 AM)8% (Oct 14, 3:00 PM)29.68 "Hg (Oct 20, 3:30 PM)
Average93 °F21%29.81 "Hg
* Reported Oct 10 5:00 PM — Oct 25 5:30 PM, Malakal, Weather by CustomWeather, © 2016

Note: Actual official high and low records may vary slightly from our data, if they occured in-between our weather recording intervals... More about our weather records


Malakal Weather History for the Previous 24 Hours

Scroll right to see more
Time TempWeatherWind HumidityBarometerVisibility
5:30 PM
Tue, Oct 25
100 °FScattered clouds.6 mph14%29.68 "HgN/A
5:00 PM100 °FScattered clouds.9 mph14%29.68 "HgN/A
4:30 PM100 °FScattered clouds.6 mph15%29.68 "HgN/A
4:00 PM102 °FSunny.8 mph13%29.68 "Hg10 mi
3:30 PM100 °FSunny.5 mph14%29.71 "Hg10 mi
3:00 PM102 °FPassing clouds.5 mph16%29.71 "HgN/A
2:30 PM100 °FSunny.5 mph15%29.74 "Hg10 mi
2:00 PM100 °FSunny.3 mph15%29.77 "Hg10 mi
1:30 PM99 °FSunny.7 mph17%29.77 "Hg10 mi
1:00 PM99 °FSunny.10 mph17%29.80 "Hg10 mi
12:30 PM97 °FSunny.7 mph18%29.80 "Hg10 mi
12:00 PM95 °FSunny.10 mph22%29.83 "Hg10 mi
11:30 AM95 °FSunny.12 mph20%29.83 "Hg10 mi
11:00 AM91 °FSunny.12 mph21%29.83 "Hg10 mi
10:30 AM90 °FSunny.12 mph21%29.86 "Hg10 mi
10:00 AM90 °FSunny.8 mph21%29.83 "Hg10 mi
9:30 AM86 °FSunny.8 mph18%29.83 "Hg10 mi
9:00 AM86 °FSunny.12 mph18%29.83 "Hg10 mi
8:30 AM84 °FSunny.12 mph20%29.83 "Hg10 mi
8:00 AM84 °FSunny.12 mph20%29.80 "Hg10 mi
7:30 AM82 °FSunny.10 mph21%29.80 "Hg10 mi
7:00 AM82 °FSunny.9 mph21%29.80 "Hg10 mi
6:30 AM84 °FClear.12 mph20%29.80 "Hg10 mi
6:00 AM84 °FClear.12 mph20%29.77 "Hg10 mi
5:30 AM84 °FClear.12 mph19%29.80 "Hg10 mi
5:00 AM84 °FClear.12 mph19%29.80 "Hg10 mi
4:30 AM86 °FClear.12 mph22%29.80 "Hg10 mi
4:00 AM86 °FClear.12 mph22%29.77 "Hg10 mi
3:30 AM88 °FClear.12 mph24%29.77 "Hg10 mi
3:00 AM88 °FClear.16 mph24%29.80 "Hg10 mi
2:00 AM88 °FClear.12 mph24%29.80 "Hg10 mi
1:30 AM90 °FClear.9 mph21%29.80 "Hg10 mi
1:00 AM90 °FClear.9 mph21%29.83 "Hg10 mi
12:30 AM93 °FClear.14 mph16%29.83 "Hg10 mi
12:00 AM93 °FClear.9 mph16%29.83 "Hg10 mi
11:30 PM
Mon, Oct 24
93 °FClear.8 mph16%29.83 "Hg10 mi
10:30 PM93 °FClear.3 mph16%29.83 "Hg10 mi
10:00 PM93 °FClear.3 mph16%29.83 "Hg10 mi
9:30 PM95 °FClear.6 mph16%29.83 "Hg10 mi
9:00 PM95 °FClear.7 mph18%29.80 "Hg10 mi
8:30 PM97 °FClear.6 mph16%29.80 "Hg10 mi
8:00 PM97 °FClear.6 mph16%29.77 "Hg10 mi
7:30 PM99 °FClear.5 mph13%29.77 "Hg10 mi
7:00 PM99 °FClear.7 mph13%29.77 "Hg10 mi
6:30 PM100 °FClear.7 mph11%29.77 "Hg10 mi
6:00 PM100 °FPassing clouds.8 mph11%29.74 "HgN/A
Weather by CustomWeather, © 2016

See weather overviewHow to use our weather pages